Location: Casteau
(50.5142°N, 4.0161°E)
Time: 09:01:07
(UTC+00:00)

Cosmos 2233 Rocket - Pass Details

Date: 18 September 2020
Orbit: 952 x 991 km, 82.9° (Epoch: 24 October)

Event Time Altitude Azimuth Distance (km) Brightness Sun altitude
Rises 18:42:07 0° 193° (SSW) 3,669 7.0 -9.0°
Reaches altitude 10° 18:44:39 10° 195° (SSW) 2,720 6.4 -9.4°
Maximum altitude 18:50:53 75° 281° (W) 1,006 4.3 -10.3°
Drops below altitude 10° 18:57:06 10° 7° (N) 2,712 6.5 -11.3°
Sets 18:59:37 0° 9° (N) 3,657 7.1 -11.7°
